This demonstration page uses our WeatherBlox Daily Observations layout. Learn more.

Left ArrowRight Arrow

44.8408, -93.29828

Hourly Observations for August 14, 2021

Temp ( °F °C ) Dew Point ( °F °C ) Humidity (%) Winds ( mph kmh ) Pressure ( in mb ) Visibility ( mi km ) Precip ( " mm )
12:53 am 00:53 Clear 65 18.3 48 8.9 54 54 SW 3 6 30.19 1022 10 16 0.00 0.00
1:53 am 01:53 Clear 64 17.8 48 8.9 56 56 WSW 3 6 30.19 1022 10 16 0.00 0.00
2:53 am 02:53 Clear 63 17.2 48 8.9 58 58 Calm 30.19 1022 10 16 0.00 0.00
3:53 am 03:53 Clear 60 15.6 49 9.4 67 67 SW 6 9 30.21 1023 10 16 0.00 0.00
4:53 am 04:53 Clear 60 15.6 48 8.9 65 65 Calm 30.22 1023 10 16 0.00 0.00
5:53 am 05:53 Clear 59 15 49 9.4 69 69 Calm 30.23 1024 10 16 0.00 0.00
6:53 am 06:53 Sunny 58 14.4 49 9.4 72 72 SW 3 6 30.24 1024 10 16 0.00 0.00
7:53 am 07:53 Sunny 61 16.1 50 10 67 67 Calm 30.25 1024 10 16 0.00 0.00
8:53 am 08:53 Sunny 67 19.4 50 10 55 55 Calm 30.25 1024 10 16 0.00 0.00
9:53 am 09:53 Sunny 70 21.1 51 10.6 51 51 SE 3 6 30.25 1024 10 16 0.00 0.00
10:53 am 10:53 Sunny 75 23.9 52 11.1 45 45 S 8 13 30.26 1025 10 16 0.00 0.00
11:53 am 11:53 Sunny 78 25.6 48 8.9 35 35 Calm 30.24 1024 10 16 0.00 0.00
12:53 pm 12:53 Mostly Sunny 81 27.2 46 7.8 29 29 SSE 7 11 30.22 1023 10 16 0.00 0.00
1:53 pm 13:53 Mostly Sunny 83 28.3 46 7.8 27 27 W 9 15 30.21 1023 10 16 0.00 0.00
2:53 pm 14:53 Mostly Sunny 84 28.9 46 7.8 27 27 VRB 3 6 30.20 1023 10 16 0.00 0.00
3:53 pm 15:53 Mostly Sunny 84 28.9 48 8.9 29 29 VRB 3 6 30.18 1022 10 16 0.00 0.00
4:53 pm 16:53 Sunny 85 29.4 50 10 30 30 VRB 6 9 30.17 1022 10 16 0.00 0.00
5:53 pm 17:53 Sunny 84 28.9 50 10 31 31 SW 12 19 30.16 1021 10 16 0.00 0.00
6:53 pm 18:53 Sunny 83 28.3 52 11.1 34 34 SSW 10 17 30.14 1021 10 16 0.00 0.00
7:53 pm 19:53 Sunny 81 27.2 53 11.7 38 38 SSW 12 19 30.14 1021 10 16 0.00 0.00
8:53 pm 20:53 Clear 79 26.1 53 11.7 41 41 S 9 15 30.14 1021 10 16 0.00 0.00
9:53 pm 21:53 Clear 77 25 54 12.2 45 45 SSW 10 17 30.15 1021 10 16 0.00 0.00
10:53 pm 22:53 Clear 76 24.4 53 11.7 45 45 SW 9 15 30.15 1021 10 16 0.00 0.00
11:53 pm 23:53 Clear 74 23.3 53 11.7 48 48 SW 10 17 30.15 1021 10 16 0.00 0.00

Powered by AerisWeather